Regional Weather Roundup
Issued by NWS Nashville, TN

Home | Current Version | Previous Version | Text Only | Print | Product List | Glossary On
Versions: 1 2 3 4 5 6 7 8 9 10 11 12 13 14 15 16 17 18 19 20 21 22 23 24 25 26 27 28 29 30 31 32 33 34 35 36 37 38 39 40 41 42 43 44 45 46 47 48 49 50
000
ASUS44 KOHX 061010
RWROHX
MIDDLE TENNESSEE HOURLY WEATHER ROUNDUP
NATIONAL WEATHER SERVICE NASHVILLE TN
500 AM CDT MON JUL 06 2015

NOTE: "FAIR" INDICATES FEW OR NO CLOUDS BELOW 12,000 FEET WITH
NO SIGNIFICANT WEATHER AND/OR OBSTRUCTIONS TO VISIBILITY.

* THESE REPORTS ARE NOT UNDER NWS QUALITY CONTROL AND MAY NOT
  REPORT WEATHER SUCH AS PRECIPITATION AND FOG.


TNZ005>011-023>034-057-059-062>066-078-080-061100
...NORTHERN MIDDLE TENNESSEE...

CITY           SKY/WX    TMP DP  RH WIND       PRES   REMARKS
CLARKSVILLE    MOCLDY    70  69  97 SW3       30.09R FOG
CROSSVILLE     CLOUDY    70  67  90 W5        30.15R FOG
GALLATIN       CLOUDY    70  32  24 CALM      30.10  VSB<1/4
DICKSON        CLOUDY    70  70 100 SW7       30.10R VSB 1
LIVINGSTON     PTCLDY    71  67  87 SW8       30.12R
NASHVILLE      CLEAR     69  69 100 CALM      30.10R
PORTLAND       CLEAR    N/A N/A N/A W3        30.08R
ROCKWOOD       CLOUDY    66  66 100 CALM      30.14R VSB<1/4
SMYRNA         PTCLDY    69  68  97 CALM      30.11R FOG
SPARTA         CLOUDY    70  70 100 CALM      30.11R
$$
TNZ056-058-060-061-075>077-079-093>097-061100
...SOUTHERN MIDDLE TENNESSEE...

CITY           SKY/WX    TMP DP  RH WIND       PRES   REMARKS
COLUMBIA       PTCLDY    70  70 100 SW3       30.11R
LEWISBURG      CLEAR     65  64  96 CALM      30.11R
MCMINNVILLE    MOCLDY    70  70 100 CALM      30.13R
SHELBYVILLE    MOCLDY    66  66 100 CALM        N/A  VSB 3/4
TULLAHOMA      PTCLDY    64  64 100 CALM      30.14R
WINCHESTER     CLEAR     66  66 100 CALM      30.13R
$$


...KEY TO REMARKS...
VSB - VISIBILITY IN MILES
WCI - WIND CHILL INDEX
HX  - HEAT INDEX



USA.gov is the U.S. government's official web portal to all federal, state and local government web resources and services.